www.pogodaiklimat.ru

Погода и климат >> Архив погоды >> Парагвай >> Консепсьон


ПОГОДА в Консепсьоне

  • Прогноз погоды в Консепсьоне
  • Монитор погоды в Консепсьоне

АРХИВ ПОГОДЫ в Консепсьоне

Время (UTC), дата Ветер
(напр.,м/с)
 
Видим.   Явления Облачность Т
(С)
Тd
(С)
f
(%)
Тe
(С)
Тes
(С)
Комфортность P
(гПа)
Po
(гПа)
Тmin
(С)
Tmax
(С)
R
(мм)
R24
(мм)
S
(см)
21 17.05 В 2 20 км 1/1 1000 м
[Cu hum]
+26.8 +19.5 64 +32 +32 очень
душно
1012.0 1003.4
00 18.05 В 2 20 км ясно +21.8 +18.9 84 +27 +27 душно 1013.0 1004.3 +28.6
03 18.05 В 3 20 км ясно +21.0 +18.0 83 +26 +26 душно 1013.1 1004.3
06 18.05 В 2 20 км ясно +19.6 +18.4 93 +23 +23 комфорт 1012.3 1003.5
09 18.05 В 2 20 км ясно +18.2 +17.6 96 +19 +19 1012.7 1003.8
12 18.05 В 7 20 км 1/0 2000 м
[Ac trans]
+22.0 +18.6 81 +27 +28 душно 1014.2 1005.4 +17.6
15 18.05 СВ 6 20 км 1/0 2000 м
[Ac trans]
+26.8 +19.1 63 +32 +36 очень
душно
1014.8 1006.2
18 18.05 СВ 5 20 км 5/3 1000 м
[Cu hum Ac trans]
+29.2 +19.7 57 +35 +38 очень
душно
1012.7 1004.2
21 18.05 В 2 20 км 5/1 1000 м
[Cu hum Ci]
+28.2 +20.5 63 +35 +35 очень
душно
1012.5 1003.9
00 19.05 В 2 20 км 3/0 2000 м
[Ac trans]
+23.2 +21.3 89 +31 +31 очень
душно
1014.6 1005.9 +30.2
03 19.05 В 3 20 км в посл. час ливневой дождь 9/0 2000 м
[Ac As]
+22.6 +21.5 94 +30 +30 очень
душно
1015.8 1007.1 2
06 19.05 В 3 20 км {ливн. осадки} 9/0 2000 м
[Ac As]
+21.8 +20.4 92 +28 +28 душно 1014.3 1005.5 2
09 19.05 В 3 20 км 10/0 2000 м
[Ac As]
+21.0 +19.4 91 +26 +26 душно 1013.0 1004.2
12 19.05 В 2 20 км 10/5 900 м
[Cu Sc Ac As]
+21.6 +19.1 86 +27 +27 душно 1015.0 1006.2 +20.8 2
15 19.05 СВ 1 20 км в посл. час дождь 10/8 800 м
[Sc As trans]
+22.4 +20.1 87 +29 +30 очень
душно
1017.0 1008.2 0.4
18 19.05 В 5 20 км {дождь} 10/8 800 м
[Sc Ac As]
+24.2 +20.6 80 +30 +30 очень
душно
1013.4 1004.7 0.5
21 19.05 В 3 20 км 9/3 900 м
[Sc Ac As]
+24.4 +20.6 79 +30 +30 очень
душно
1012.8 1004.1
00 20.05 штиль 0 20 км ясно +20.8 +19.5 92 +25 +25 комфорт 1012.9 1004.1 +25.4
03 20.05 штиль 0 20 км ясно +19.0 +18.7 98 +21 +21 комфорт 1013.0 1004.1
06 20.05 штиль 0 20 км 10/0 2000 м
[Ac trans]
+18.6 +17.7 95 +20 +20 1013.4 1004.5
09 20.05 В 1 20 км 3/0 2000 м
[Ac trans]
+18.4 +17.7 96 +20 +20 1012.4 1003.5
12 20.05 штиль 0 20 км 3/0 2000 м
[Ac As]
+19.8 +18.6 93 +22 +25 комфорт 1013.6 1004.7 +18.0 0.9
15 20.05 СВ 4 20 км 8/0 2000 м
[Ac As]
+27.0 +19.3 63 +33 +36 очень
душно
1013.3 1004.7
18 20.05 СВ 4 20 км 3/0 2000 м
[Ac cast Cs]
+30.0 +20.8 58 +37 +42 очень
душно
1010.7 1002.2
21 20.05 штиль 0 20 км 9/0
[Cs]
+28.6 +21.7 66 +37 +37 очень
душно
1009.6 1001.1
00 21.05 В 1 20 км ясно +23.4 +19.8 80 +30 +30 очень
душно
1010.0 1001.3 +30.4
03 21.05 В 1 20 км ясно +22.0 +18.8 82 +27 +27 душно 1011.8 1003.1
06 21.05 В 4 20 км 1/0 2000 м
[Ac trans]
+22.4 +18.3 78 +28 +28 душно 1010.3 1001.6
09 21.05 СВ 3 20 км 9/0 2000 м
[Ac trans]
+21.2 +17.8 81 +25 +25 комфорт 1009.4 1000.6
12 21.05 СВ 4 20 км 10/3 1000 м
[Sc Ac As]
+22.0 +17.4 75 +26 +27 душно 1011.4 1002.7 +19.8
15 21.05 С 4 20 км 10/5 900 м
[Sc Ac As]
+26.0 +19.7 68 +32 +33 очень
душно
1012.5 1003.9
18 21.05 Ю 1 20 км 10/8 900 м
[Sc Ac As]
+26.6 +21.2 72 +34 +34 очень
душно
1011.0 1002.4
21 21.05 ЮЗ 2 20 км 10/8 900 м
[Sc Ac As]
+25.0 +20.4 76 +31 +31 очень
душно
1010.5 1001.9
00 22.05 штиль 0 20 км в посл. час дождь 10/10 800 м
[Sc]
+22.8 +21.7 94 +31 +31 очень
душно
1011.6 1002.9 +27.0 8
03 22.05 штиль 0 20 км в посл. час дождь 10/10 450 м
[Sc]
+22.4 +21.7 96 +30 +30 очень
душно
1013.1 1004.4 0.2
06 22.05 Ю 4 20 км {дождь} 10/10 450 м
[Sc]
+20.4 +19.6 95 +24 +24 комфорт 1013.6 1004.8 3
09 22.05 Ю 7 20 км 10/10 210 м
[St]
+20.2 +18.4 89 +23 +23 комфорт 1013.6 1004.8
12 22.05 Ю 6 20 км 10/10 180 м
[St]
+18.6 +17.5 93 +19 +19 1015.6 1006.7 +18.6 12
15 22.05 Ю 5 20 км 10/10 300 м
[St]
+19.6 +17.2 86 +22 +22 комфорт 1017.0 1008.2
18 22.05 ЮЗ 4 20 км 10/10 360 м
[St]
+19.8 +17.0 84 +22 +22 комфорт 1015.7 1006.9
21 22.05 Ю 4 20 км в посл. час дождь 10/10 300 м
[St]
+18.6 +17.6 94 +19 +19 1015.1 1006.2 0.2
00 23.05 Ю 3 8000 м слаб. дождь 10/10 300 м
[Sc]
+18.4 +17.6 95 +19 +19 1015.9 1007.0 +22.8 1
03 23.05 Ю 3 7000 м слаб. морось {дождь} 10/10 210 м
[St]
+18.2 +17.6 96 +19 +19 1016.5 1007.6 0.2
06 23.05 Ю 3 5000 м слаб. дождь {морось} 10/10 210 м
[Sc]
+17.6 +16.6 94 +18 +18 1015.9 1007.0 3
09 23.05 Ю 1 6000 м слаб. дождь 10/10 210 м
[Sc]
+17.2 +16.7 97 +18 +18 1014.5 1005.6 2
12 23.05 Ю 3 3000 м дождь 10/10 180 м
[St]
+16.4 +15.7 96 +16 +16 1016.4 1007.4 +16.4 2
15 23.05 Ю 3 3000 м слаб. дождь 10/10 180 м
[Sc]
+17.0 +16.7 98 +17 +17 1017.0 1008.1 3
18 23.05 Ю 5 3000 м слаб. морось {дождь} 10/10 150 м
[St]
+16.8 +15.6 93 +16 +16 1016.3 1007.4 1
21 23.05 Ю 5 20 км 10/10 180 м
[Sc]
+17.0 +15.3 90 +16 +16 1017.0 1008.1
00 24.05 ЮЗ 4 20 км 10/10 240 м
[Sc]
+16.4 +15.4 94 +16 +16 1017.9 1008.9 +18.4
03 24.05 ЮЗ 4 20 км 10/10 300 м
[St]
+15.8 +14.5 92 +15 +15 1018.4 1009.4
06 24.05 ЮЗ 5 20 км 10/10 300 м
[St]
+14.8 +13.3 91 +13 +13 1018.4 1009.4
09 24.05 ЮЗ 4 20 км 3/3 300 м
[St]
+13.8 +12.3 91 +12 +12 1017.4 1008.3
12 24.05 ЮЗ 4 20 км 8/8 300 м
[St]
+13.2 +7.0 66 +12 +12 1019.6 1010.5 +12.8 5
15 24.05 ЮЗ 5 20 км 9/9 600 м
[Sc]
+16.8 +11.6 71 +16 +16 1020.1 1011.1
18 24.05 ЮЗ 5 20 км 9/9 700 м
[Sc]
+18.6 +12.3 67 +19 +19 1018.7 1009.8

 

Местоположение метеостанции Консепсьон (Парагвай): широта -23.41 долгота -57.30 высота над уровнем моря 74 м.

В архиве по умолчанию представлена погода в Консепсьоне за последнюю неделю. Архивные данные за месяц целиком и за предыдущие месяцы, начиная с января 2011 года, Вы можете получить, выбрав интересующий диапазон дат из раскрывающегося списка и нажав кнопку "Ввод!".


*Определитесь, кто Вы:
робот инопланетянин человек

Внимание! Время в таблицах - всемирное. Для получения местного времени необходимо прибавить поправку, которая равна -4 ч.

Смотрите также архив погоды в соседних городах и на ближайших метеорологических станциях:

Погода в Сан-Педро (Парагвай) (76 км)
Погода в Пуэрто-Касадо (Парагвай) (138 км)
Погода в Посо Колорадо (Парагвай) (163 км)
Погода в Сан Эстанислао (Парагвай) (164 км)
Погода в Бела-Виста (Мату-Гросу-ду-Сул, Бразилия) (165 км)
Погода в Педро-Хуан-Кабальеро (Парагвай) (185 км)
Погода в Понта-Пора (Мату-Гросу-ду-Сул, Бразилия) (191 км)
Погода в Порто Муртиньо (Мату-Гросу-ду-Сул, Бразилия) (192 км)
Погода в Асунсьоне (Парагвай) (206 км)
Погода в Понта-Поране (Мату-Гросу-ду-Сул, Бразилия) (206 км)

Пояснения к столбцам:

Ветер - указаны скорость ветра в м/с - средняя за 10 мин, порывы в срок и между сроками (в фигурных скобках) и направление, откуда дует ветер: С - северный, СВ - северо-восточный, В - восточный, ЮВ - юго-восточный, Ю - южный, ЮЗ - юго-западный, З - западный, СЗ - северо-западный.
Видимость - горизонтальная дальность видимости в метрах или километрах. При видимости от 1 до 10 км при отсутствии осадков обычно наблюдается дымка, при ухудшении видимости до 1 км и менее - туман. В сухую погоду видимость может ухудшаться дымом, пылью или мглою.
Явления - указаны атмосферные явления, наблюдавшиеся в срок или в последний час перед сроком; фигурными скобками обозначены явления, наблюдавшиеся между сроками (за 1-3 часа до срока); квадратными скобками обозначены град или гололедные отложения с указанием их диаметра в мм.
Облачность - указаны через наклонную черту общая и нижняя облачность в баллах и высота нижней границы облаков в метрах; квадратными скобками обозначены формы облаков: Ci - перистые, Cs - перисто-слоистые, Cc - перисто-кучевые, Ac - высококучевые, As - высокослоистые, Sc - слоисто-кучевые, Ns - слоисто-дождевые, Cu - кучевые, Cb - кучево-дождевые. Подробнее классификацию облаков см. в Атласе облаков (PDF).
T - Температура воздуха - температура, измеренная на высоте 2 м над землей.
Td - Температура точки росы - температура, при понижении до которой содержащийся в воздухе водяной пар достигнет насыщения.
f - Относительная влажность воздуха - влажноcть воздуха, измеренная на высоте 2 м над землей.
Te - Эффективная температура - температура, которую ощущает одетый по сезону человек в тени. Характеристика душности погоды. При расчете учитывается влияние влажности воздуха и скорости ветра на теплоощущения человека.
Tes - Эффективная температура на солнце - температура, которую ощущает человек, с поправкой на солнечный нагрев. Характеристика знойности погоды. Зависит от высоты солнца над горизонтом, облачности и скорости ветра. Ночью, в пасмурную погоду, а также при ветре 12 м/с и более поправка равна нулю.
P - Атмосферное давление - приведенное к уровню моря атмосферное давление.
Po - Атмосферное давление - измеренное на уровне метеостанции атмосферное давление.
Tmin - Минимальная температура - минимум температуры воздуха на высоте 2 м над землей.
Tmax - Максимальная температура - максимум температуры воздуха на высоте 2 м над землей.
R - Количество осадков - Количество выпавших осадков за период времени, мм. При наведении курсора мыши на число - период времени, за который выпало указанное количество осадков.
R24 - Количество осадков - Количество выпавших осадков за 24 часа, мм.
S - Снежный покров - Высота снежного покрова, см. При наведении курсора мыши на число - состояние снежного покрова и степень покрытия местности в баллах.